Orbital Elements at Epoch 2459000.5 (2020-May-31.0) TDB
Reference: JPL 16 (heliocentric ecliptic J2000)
Element | Value | Uncertainty (1-sigma) | Units |
e | .0774803728267191 | 3.5671e-08 | |
a | 2.659910017141832 | 1.7524e-08 | au |
q | 2.453819197328158 | 1.0255e-07 | au |
i | 9.482297901700123 | 5.0086e-06 | deg |
node | 151.3801714965387 | 2.1237e-05 | deg |
peri | 267.1103236870064 | 4.1306e-05 | deg |
M | 261.9398071217556 | 3.6979e-05 | deg |
tp | 2459432.107603343032 (2021-Aug-05.60760334) | 0.00016374 | TDB |
period | 1584.524083043731 4.34 | 1.5659e-05 4.287e-08 | d yr |
n | .2271975565738779 | 2.2453e-09 | deg/d |
Q | 2.866000836955506 | 1.8882e-08 | au |
|
| | Orbit Determination Parameters
Additional Information
|